Home   Weather   Dinslaken   Past weeks

Flag for Germany Past Weather in Dinslaken, North Rhine-Westphalia, Germany — Yesterday and Last 2 Weeks

Now
57 °F

Clear.


Feels Like: 57 °F
Forecast: 50 / 72 °F
Wind: 2 mph from Northwest

Location: Duesseldorf

Current Time: May 24, 2017 at 12:51:08 am

Latest Report: May 24, 2017 at 12:20 am


Visibility: 10 mi

Pressure: 30.21 "Hg

Humidity: 63%

Dew Point: 45 °F

Location of DinslakenLocation

Past Weather in Dinslaken — Graph

°F

Dinslaken Temperature Yesterday

Maximum temperature yesterday: 75 °F (at 1:50 pm)
Minimum temperature yesterday: 59 °F (at 11:20 pm)
Average temperature yesterday: 67 °F

High & Low Weather Summary for the Past Weeks

 TemperatureHumidityPressure
High84 °F (May 17, 4:20 pm)100% (May 10, 5:50 am)30.42 "Hg (May 10, 5:50 am)
Low32 °F (May 10, 6:20 am)23% (May 15, 7:20 pm)29.39 "Hg (May 11, 6:50 pm)
Average61 °F63%30.00 "Hg
* Reported May 8 11:20 pm — May 23 11:20 pm, Dinslaken. Weather by CustomWeather, © 2017

Note: Actual official high and low records may vary slightly from our data, if they occured in-between our weather recording intervals... More about our weather records

Advertising

Dinslaken Weather History for the Previous 24 Hours

Scroll right to see more
 ConditionsComfort  
Time TempWeatherWind HumidityBarometerVisibility
11:20 pm
Tue, May 23
59 °FClear.7 mph55%30.21 "Hg10 mi
10:50 pm61 °FClear.8 mph52%30.21 "Hg10 mi
10:20 pm61 °FClear.7 mph52%30.21 "Hg10 mi
9:50 pm63 °FPassing clouds.7 mph49%30.18 "HgN/A
9:20 pm63 °FSunny.10 mph49%30.18 "Hg10 mi
8:50 pm64 °FPartly sunny.13 mph46%30.15 "HgN/A
8:20 pm66 °FPartly sunny.15 mph46%30.15 "HgN/A
7:50 pm68 °FPartly sunny.15 mph43%30.12 "HgN/A
7:20 pm68 °FPartly sunny.16 mph43%30.12 "HgN/A
6:50 pm70 °FPartly sunny.16 mph40%30.12 "HgN/A
6:20 pm70 °FBroken clouds.16 mph46%30.09 "HgN/A
5:50 pm70 °FBroken clouds.18 mph46%30.09 "HgN/A
5:20 pm72 °FPartly sunny.17 mph44%30.09 "HgN/A
4:50 pm72 °FPartly sunny.18 mph50%30.09 "HgN/A
4:20 pm72 °FScattered clouds.15 mph53%30.07 "HgN/A
3:50 pm73 °FScattered clouds.16 mph47%30.07 "HgN/A
3:20 pm75 °FPassing clouds.17 mph44%30.07 "HgN/A
2:50 pm73 °FPassing clouds.15 mph44%30.07 "HgN/A
2:20 pm73 °FPassing clouds.16 mph44%30.04 "HgN/A
1:50 pm75 °FPassing clouds.16 mph41%30.04 "HgN/A
1:20 pm73 °FPassing clouds.16 mph44%30.04 "HgN/A
12:50 pm73 °FPassing clouds.14 mph44%30.04 "HgN/A
12:20 pm73 °FScattered clouds.14 mph47%30.04 "HgN/A
11:50 am73 °FScattered clouds.10 mph53%30.04 "HgN/A
11:20 am72 °FSunny.12 mph57%30.01 "Hg10 mi
10:50 am73 °FSunny.12 mph50%30.01 "Hg10 mi
10:20 am72 °FPassing clouds.7 mph53%30.01 "HgN/A
9:50 am70 °FPassing clouds.7 mph60%30.01 "HgN/A
9:20 am70 °FPassing clouds.6 mph57%30.01 "HgN/A
8:50 am68 °FPassing clouds.7 mph56%30.01 "HgN/A
8:20 am66 °FSunny.6 mph60%30.01 "Hg10 mi
7:50 am64 °FPassing clouds.6 mph64%30.01 "HgN/A
7:20 am63 °FPassing clouds.8 mph68%30.01 "HgN/A
6:50 am61 °FSunny.7 mph72%30.01 "Hg10 mi
6:20 am61 °FSunny.7 mph68%29.98 "Hg10 mi
5:50 am61 °FSunny.7 mph68%29.98 "Hg10 mi
5:20 am61 °FClear.6 mph68%29.98 "Hg10 mi
4:50 am61 °FClear.7 mph68%29.98 "Hg10 mi
4:20 am63 °FClear.8 mph64%29.98 "Hg10 mi
3:50 am63 °FClear.8 mph64%29.98 "Hg10 mi
3:20 am63 °FClear.9 mph64%29.98 "Hg10 mi
2:50 am64 °FClear.13 mph56%29.98 "Hg10 mi
2:20 am64 °FClear.12 mph56%29.98 "Hg10 mi
1:50 am66 °FClear.12 mph52%29.98 "Hg10 mi
1:20 am66 °FClear.13 mph52%29.98 "Hg10 mi
12:50 am66 °FClear.9 mph52%29.98 "Hg10 mi
12:20 am66 °FClear.9 mph52%30.01 "Hg10 mi
Weather by CustomWeather, © 2017

See weather overviewHow to use our weather pages